Home   Weather   Jalalabad   Past weeks

Flag for Afghanistan Past Weather in Jalalabad, Afghanistan — Yesterday and Last 2 Weeks

Now
95 °F

Haze.


Feels Like: 93 °F
Forecast: 62 / 93 °F
Wind: 9 mph from Northeast

Location: Peshawar Airport

Current Time: Apr 26, 2017 at 4:47:17 pm

Latest Report: Apr 26, 2017 at 4:00 pm


Visibility: 5 mi

Pressure: 29.71 "Hg (27.88 "Hg at 572m altitude)

Humidity: 26%

Dew Point: 55 °F

Location of JalalabadLocation

Past Weather in Jalalabad — Graph

°F

Jalalabad Temperature Yesterday

Maximum temperature yesterday: 93 °F (at 2:30 pm)
Minimum temperature yesterday: 63 °F (at 4:30 am)
Average temperature yesterday: 80 °F

High & Low Weather Summary for the Past Weeks

 TemperatureHumidityPressure
High104 °F (Apr 16, 3:30 pm)88% (Apr 23, 1:30 am)29.92 "Hg (Apr 23, 1:30 am)
Low63 °F (Apr 25, 4:30 am)16% (Apr 14, 1:30 pm)29.53 "Hg (Apr 19, 3:30 pm)
Average84 °F43%29.74 "Hg
* Reported Apr 11 3:30 pm — Apr 26 3:30 pm, Jalalabad, Weather by CustomWeather, © 2017

Note: Actual official high and low records may vary slightly from our data, if they occured in-between our weather recording intervals... More about our weather records

Advertising

Jalalabad Weather History for the Previous 24 Hours

Scroll right to see more
 ConditionsComfort  
Time TempWeatherWind HumidityBarometerVisibility
3:30 pm
Wed, Apr 26
95 °FHaze.9 mph26%29.71 "Hg5 mi
3:00 pm93 °FHaze.9 mph28%29.71 "Hg5 mi
2:30 pm93 °FHaze.9 mph28%29.71 "Hg5 mi
2:00 pm93 °FHaze.9 mph30%29.74 "Hg3 mi
1:30 pm93 °FHaze.9 mph30%29.74 "Hg3 mi
1:00 pm91 °FHaze.12 mph32%29.77 "Hg3 mi
12:30 pm91 °FHaze.12 mph32%29.77 "Hg3 mi
12:00 pm90 °FHaze.7 mph33%29.77 "Hg3 mi
11:30 am90 °FHaze.7 mph33%29.77 "Hg3 mi
11:00 am86 °FHaze.9 mph35%29.80 "Hg2 mi
10:30 am86 °FHaze.9 mph35%29.80 "Hg2 mi
10:00 am84 °FScattered clouds.9 mph35%29.80 "Hg3 mi
9:30 am84 °FScattered clouds.9 mph35%29.80 "Hg3 mi
9:00 am81 °FScattered clouds.9 mph42%29.80 "Hg3 mi
8:30 am81 °FHaze.9 mph42%29.80 "Hg3 mi
8:00 am75 °FHaze.7 mph54%29.80 "Hg2 mi
7:30 am75 °FHaze.7 mph54%29.80 "Hg2 mi
7:00 am72 °FHaze.5 mph53%29.77 "Hg2 mi
6:30 am72 °FHaze.5 mph53%29.77 "Hg2 mi
6:00 am68 °FScattered clouds.5 mph56%29.74 "Hg2 mi
5:30 am68 °FScattered clouds.5 mph56%29.74 "Hg2 mi
5:00 am68 °FScattered clouds.5 mph56%29.74 "Hg2 mi
4:30 am70 °FPassing clouds.5 mph50%29.74 "Hg2 mi
4:00 am68 °FHaze.7 mph53%29.68 "Hg2 mi
3:30 am68 °FHaze.7 mph53%29.68 "Hg2 mi
3:00 am70 °FPassing clouds.7 mph50%29.68 "Hg2 mi
2:30 am70 °FPassing clouds.7 mph50%29.68 "Hg2 mi
2:00 am72 °FPassing clouds.7 mph47%29.71 "Hg2 mi
1:30 am72 °FPassing clouds.7 mph47%29.71 "Hg2 mi
1:00 am73 °FPassing clouds.7 mph44%29.71 "Hg2 mi
12:30 am73 °FPassing clouds.7 mph44%29.71 "Hg2 mi
12:00 am75 °FPassing clouds.7 mph44%29.71 "Hg2 mi
11:30 pm
Tue, Apr 25
75 °FPassing clouds.7 mph44%29.71 "Hg2 mi
11:00 pm77 °FHaze.7 mph47%29.74 "Hg2 mi
10:30 pm77 °FHaze.7 mph47%29.74 "Hg2 mi
10:00 pm82 °FHaze.7 mph40%29.74 "Hg2 mi
9:30 pm82 °FHaze.7 mph40%29.74 "Hg2 mi
9:00 pm82 °FHaze.7 mph40%29.74 "Hg2 mi
8:30 pm82 °FHaze.7 mph40%29.74 "Hg2 mi
7:30 pm86 °FHaze.7 mph35%29.71 "Hg2 mi
7:00 pm88 °FHaze.7 mph40%29.71 "Hg3 mi
6:30 pm88 °FHaze.7 mph40%29.71 "Hg3 mi
6:00 pm91 °FHaze.9 mph36%29.68 "Hg5 mi
5:30 pm91 °FHaze.9 mph36%29.68 "Hg5 mi
5:00 pm91 °FHaze.12 mph36%29.68 "Hg5 mi
4:30 pm91 °FHaze.12 mph36%29.68 "Hg5 mi
Weather by CustomWeather, © 2017

See weather overviewHow to use our weather pages